Observations for Trim Patrick St
| Time | AQI | Temp °C | Hum % | Pres Pa | CO μg/m³ | H₂S μg/m³ | NO μg/m³ | NO₂ μg/m³ | O₃ μg/m³ | SO₂ μg/m³ | PM1 μg/m³ | PM2.5 μg/m³ | PM10 μg/m³ |
|---|---|---|---|---|---|---|---|---|---|---|---|---|---|
| Monday 3 August 2026 | |||||||||||||
| 12:35 | 2 | 30.5 | 32 | 69,193 | 0 | 0 | 1.53 | 4.91 | 91.76 | 11.45 | 2.86 | 9.92 | 10.91 |
| 12:34 | 2 | 30.5 | 36 | 69,222 | 0 | 0 | 1.83 | 0 | 73.92 | 10.57 | 3.71 | 9.65 | 10.62 |
| 12:33 | 2 | 30.5 | 38 | 69,232 | 0 | 0 | 1.9 | 0 | 74.87 | 11.57 | 4.57 | 10.32 | 11.35 |
| 12:32 | 2 | 30.5 | 36 | 69,246 | 0 | 0 | 1.72 | 0 | 69.25 | 8.69 | 4.57 | 10.45 | 11.5 |
| 12:31 | 2 | 30.4 | 39 | 69,234 | 0 | 0 | 1.87 | 15.33 | 107.77 | 12.57 | 2.86 | 8.67 | 9.54 |
| 12:30 | 2 | 30.4 | 39 | 69,218 | 0 | 0 | 1.82 | 18.4 | 93.35 | 11.65 | 4.57 | 10.22 | 11.25 |
| 12:29 | 2 | 30.3 | 37 | 69,220 | 0 | 0 | 1.7 | 19.59 | 170.32 | 11.23 | 4.57 | 11.2 | 12.32 |
| 12:28 | 2 | 30.3 | 36 | 69,197 | 0 | 0 | 1.58 | 13.29 | 103.75 | 11.42 | 3.71 | 9.68 | 10.64 |
| 12:27 | 2 | 30.3 | 39 | 69,197 | 0 | 0 | 1.81 | 11.95 | 91.06 | 11.67 | 3.71 | 10.28 | 11.31 |
| 12:26 | 2 | 30.2 | 39 | 69,197 | 0 | 0 | 1.82 | 5.38 | 84.19 | 14.12 | 2.86 | 8.69 | 9.56 |
| 12:25 | 2 | 30.1 | 37 | 69,197 | 0 | 0 | 1.63 | 18.9 | 117.94 | 11.83 | 5.43 | 11.21 | 12.33 |
| 12:24 | 2 | 30.1 | 37 | 69,195 | 0 | 0 | 1.62 | 23.38 | 105.22 | 11.6 | 5.43 | 11.17 | 12.29 |
| 12:23 | 2 | 30 | 39 | 69,193 | 0 | 0 | 1.87 | 13.87 | 83.01 | 11.42 | 3.71 | 10.25 | 11.27 |
| 12:22 | 2 | 29.9 | 36 | 69,191 | 0 | 0 | 1.67 | 20.79 | 124.39 | 11.6 | 2.86 | 9.65 | 10.61 |
| 12:21 | 2 | 29.9 | 36 | 69,189 | 0 | 0 | 1.66 | 12.42 | 87.6 | 10.86 | 4.57 | 10.43 | 11.48 |
| 12:20 | 2 | 29.9 | 36 | 69,191 | 0 | 0 | 1.65 | 24.08 | 103.79 | 10.56 | 3.71 | 9.65 | 10.61 |
| 12:19 | 2 | 29.8 | 37 | 69,189 | 0 | 0 | 1.63 | 13.88 | 92.79 | 11.48 | 3.71 | 10.43 | 11.47 |
| 12:18 | 2 | 29.8 | 36 | 69,216 | 0 | 0 | 1.56 | 23.81 | 91.5 | 9.96 | 2.86 | 8.88 | 9.77 |
| 12:17 | 2 | 29.8 | 37 | 69,226 | 0 | 0 | 1.63 | 17.22 | 151.32 | 11.51 | 2.86 | 8.83 | 9.71 |
| 12:16 | 2 | 29.7 | 37 | 69,212 | 0 | 0 | 1.62 | 9.02 | 78.63 | 9.94 | 2.86 | 8.83 | 9.71 |